STARLINK-5669, 55459

Orbit data source: Space-Track

STARLINK-5669, 55459 is a payload satellite owned by SpaceX/Seattle (US) in LEO that was launched on Thu, 02 Feb 2023 UTC via an FALCON 9 launch vehicle from the Air Force Eastern Test Range (AFETR). Payload-class satellites include a variety of spacecraft equipped with specific instruments for various scientific and technological missions. These include communications satellites like Starlink; space stations such as the ISS; scientific satellites like the Hubble; Earth observation satellites from companies like Planet Labs, Umbra, and HawkEye 360; GPS; miniature CubeSats for education and research; and military/defense satellites.

Loading next visibility...
Identifier
55459, 2023-015L
Orbit
LEO
Country
Flag of USUS
Related business
Manufacturer
SpaceX/Seattle
Mission
Operational Commercial Communications
Bus & Motor
STARLINK, Unknown motor
Mass
305 kg wet, ~290 kg dry
Launch date (UTC)
2023-02-02 (3 years ago)
Launch vehicle
FALCON 9
Launch site
Air Force Eastern Test Range (AFETR)
Object type
Payload
Rocket body
Debris
Shape & HBR
Box + 1 Pan, 10.1 m
Radar Cross Section
13.562 m², Large (>1 m²)

Expand to show TLE details & history
Last TLE update: 14 hours ago

TLE from 14 hours ago
0 STARLINK-5669
1 55459U 23015L   25288.57648727 -.00000245  00000-0 -30460-5 0  9991
2 55459  43.0040  34.6266 0001089 254.4723 105.5999 15.02536833148921
Epoch: 2025-10-15T13:50Z
TLE epoch observation values (Epoch: 2025-10-15T13:50:08.500Z)
Latitude
-0.00002°
Longitude
162.74259°
Altitude
559.059 km
Speed
7.584 km/s
True Right ascension
02h 18m 30s
True Declination
0° 00' 00"
Sunlit
Object was in full shadow at epoch
Visualization orbit readout
Latitude
Unknown
Longitude
Unknown
Altitude
Unknown
Speed
Unknown
Apparent Right ascension
Unknown
Apparent Declination
Unknown
Sunlit
N/A
Visualization observer readout
Local Sidereal Time
22:02:33
Azimuth
Unknown
Elevation
Unknown
Doppler factor
Unknown
Orbital elements
Apogee altitude
561.756 km
Perigee altitude
560.245 km
Semi-major axis
6,939.137 km
Eccentricity
0.00011
Inclination
43.004°
RAAN
34.6266°
Arg. of periapsis
254.4723°
True anomaly
105.61192°
Mean anomaly
105.5999°
Eccentric anomaly
105.60591°
Mean motion
3.75478 °/min
Orbital period
95.88 mins
BSTAR
-0.000003046
Loading maneuver chart data...
Computing Atmospheric mass density...
Loading historical data...
Loading historical data...
Loading historical data...
Loading historical data...
Loading historical data...
Loading historical data...
Loading historical data...

Documentation

Showing up to 5 results
|